Location: Unspecified
(37.6100°N, 2.7800°W)
Time: 05:36:16
(UTC+00:00)

Envisat - Pass Details

Date: 20 October 2018
Orbit: 764 x 766 km, 98.2° (Epoch: 15 November)

Event Time Altitude Azimuth Distance (km) Brightness Sun altitude
Rises 19:51:48 0° 189° (S) 3,217 6.2 -29.3°
Reaches altitude 10° 19:54:17 10° 198° (SSW) 2,296 5.5 -29.8°
Maximum altitude 19:58:51 34° 263° (W) 1,247 4.5 -30.6°
Drops below altitude 10° 20:03:27 10° 328° (NNW) 2,309 5.9 -31.5°
Sets 20:05:59 0° 337° (NNW) 3,239 6.7 -32.0°
